Tracking 27112 objects as of 27-Mar-2023
HD Live streaming from Space Station
objects crossing your sky now

ICEYE-X7

Track ICEYE-X7 now!
10-day predictions


NORAD ID: 46496
Int'l Code: 2020-068L
Perigee: 560.8 km
Apogee: 582.4 km
Inclination: 97.6 °
Period: 95.9 minutes
Semi major axis: 6942 km
RCS: Unknown
Launch date: September 28, 2020
Source: (FIN)
Launch site: PLESETSK MISSILE AND SPACE COMPLEX (PKMTR)
Your satellite tracking list
Your tracking list is empty




NASA's NSSDC Master Catalog

Two Line Element Set (TLE):
1 46496U 20068L   23086.61804110  .00011554  00000-0  91168-3 0  9999
2 46496  97.6457  24.4514 0015559  41.6689 318.5795 15.00784950136544
Source of the keplerian elements: AFSPC